Home   Weather   Prague   Past weeks
Flag for Czech Republic

Past Weather in Prague, Czech Republic — Yesterday and Last 2 Weeks

Now
41 °F

Partly sunny.


Feels Like: 33 °F
Forecast: 50 / 37 °F
Wind: 14 mph from West

Location: Václav Havel Airport Prague

Current Time: Mar 26, 2019 at 11:38:08 am

Latest Report: Mar 26, 2019 at 11:00 am


Visibility: N/A

Pressure: 30.27 "Hg

Humidity: 61%

Dew Point: 28 °F

Location of PragueLocation

Past Weather in Prague — Graph

°F

Prague Temperature Yesterday

Maximum temperature yesterday: 46 °F (at 3:30 pm)
Minimum temperature yesterday: 37 °F (at 7:00 am)
Average temperature yesterday: 41 °F

High & Low Weather Summary for the Past Weeks

 TemperatureHumidityPressure
High66 °F (Mar 23, 2:30 pm)93% (Mar 11, 10:00 pm)30.57 "Hg (Mar 11, 10:00 pm)
Low32 °F (Mar 19, 1:30 am)30% (Mar 17, 12:30 pm)29.42 "Hg (Mar 14, 7:30 pm)
Average43 °F69%30.04 "Hg
* Reported Mar 11 10:00 am — Mar 26 10:30 am, Prague. Weather by CustomWeather, © 2019

Note: Actual official high and low records may vary slightly from our data, if they occured in-between our weather recording intervals... More about our weather records

Advertising

Prague Weather History for the Previous 24 Hours

Scroll right to see more
 ConditionsComfort  
Time TempWeatherWind HumidityBarometerVisibility
10:30 am
Tue, Mar 26
41 °FBroken clouds.13 mph61%30.27 "HgN/A
10:00 am41 °FBroken clouds.13 mph61%30.27 "HgN/A
9:30 am39 °FBroken clouds.13 mph65%30.27 "HgN/A
9:00 am39 °FPartly sunny.10 mph70%30.27 "HgN/A
8:30 am39 °FPartly sunny.14 mph70%30.24 "HgN/A
8:00 am39 °FPartly sunny.12 mph75%30.27 "HgN/A
7:30 am37 °FPartly sunny.13 mph75%30.24 "HgN/A
7:00 am36 °FPartly sunny.7 mph87%30.24 "HgN/A
6:30 am36 °FPartly sunny.9 mph87%30.24 "HgN/A
6:00 am36 °FPartly sunny.9 mph87%30.24 "HgN/A
5:30 am36 °FPassing clouds.7 mph87%30.24 "HgN/A
5:00 am36 °FPassing clouds.6 mph87%30.21 "HgN/A
4:30 am37 °FPartly cloudy.6 mph81%30.21 "HgN/A
4:00 am37 °FPartly cloudy.9 mph81%30.21 "HgN/A
3:30 am36 °FPassing clouds.9 mph81%30.21 "HgN/A
3:00 am36 °FPassing clouds.10 mph87%30.18 "HgN/A
2:30 am36 °FPartly cloudy.7 mph81%30.18 "HgN/A
2:00 am36 °FPassing clouds.12 mph81%30.18 "HgN/A
1:30 am34 °FPassing clouds.9 mph87%30.18 "HgN/A
1:00 am34 °FPassing clouds.8 mph87%30.18 "HgN/A
12:30 am36 °FPassing clouds.8 mph81%30.15 "HgN/A
12:00 am36 °FPartly cloudy.8 mph81%30.15 "HgN/A
11:30 pm
Mon, Mar 25
37 °FPassing clouds.6 mph81%30.15 "HgN/A
11:00 pm37 °FPassing clouds.10 mph81%30.15 "HgN/A
10:30 pm37 °FPartly cloudy.12 mph81%30.12 "HgN/A
10:00 pm37 °FPassing clouds.14 mph81%30.12 "HgN/A
9:30 pm37 °FPassing clouds.10 mph81%30.09 "HgN/A
9:00 pm37 °FPassing clouds.9 mph81%30.09 "HgN/A
8:30 pm37 °FPartly cloudy.10 mph81%30.07 "HgN/A
8:00 pm37 °FPartly cloudy.8 mph87%30.04 "HgN/A
7:39 pm39 °FSprinkles. Passing clouds.6 mph81%30.04 "HgN/A
7:00 pm37 °FPassing clouds.7 mph87%30.04 "HgN/A
6:30 pm39 °FPassing clouds.8 mph81%30.01 "HgN/A
6:00 pm37 °FSprinkles. Scattered clouds.17 mph87%30.01 "HgN/A
5:30 pm41 °FSprinkles. Scattered clouds.18 mph66%29.98 "HgN/A
5:24 pm45 °FSprinkles. Passing clouds.21 mph46%29.98 "HgN/A
5:00 pm45 °FScattered showers. Passing clouds.9 mph42%29.95 "HgN/A
4:30 pm46 °FPassing clouds.12 mph40%29.95 "HgN/A
4:00 pm46 °FPassing clouds.12 mph40%29.95 "HgN/A
3:30 pm46 °FPassing clouds.17 mph40%29.95 "HgN/A
3:00 pm45 °FPassing clouds.12 mph57%29.95 "HgN/A
2:39 pm41 °FScattered showers. Scattered clouds.9 mph66%29.95 "HgN/A
2:23 pm41 °FSprinkles. Scattered clouds.21 mph66%29.95 "HgN/A
2:00 pm45 °FPassing clouds.21 mph53%29.95 "HgN/A
1:00 pm45 °FBroken clouds.23 mph49%29.95 "HgN/A
12:30 pm43 °FPassing clouds.23 mph61%29.95 "HgN/A
12:00 pm43 °FSprinkles. Partly sunny.24 mph61%29.95 "HgN/A
11:30 am43 °FSprinkles. Broken clouds.22 mph61%29.95 "HgN/A
11:00 am43 °FSprinkles. Scattered clouds.23 mph57%29.95 "HgN/A
Weather by CustomWeather, © 2019

See weather overview